Home > Time Zones > World Clock > Weather > Italy > Milan > Past weeks

Flag for Italy Weather past 2 weeks in Milan, Italy

Now
54 °F

Clear.


Feels Like: 54 °F
Forecast: 51 / 72 °F
Wind: No wind

Location: Milan / Linate


UV Index: 3 (Moderate)

Visibility: 10 mi


Pressure: 30.01 "Hg

Humidity: 100%

Dew point: 54 °F

Location of MilanLocation

Historic Weather in Milan

°F

Milan temperature yesterday

Maximum temperature yesterday: 73 °F (at 3:50 PM)
Minimum temperature yesterday: 50 °F (at 5:50 AM)
Average temperature yesterday: 62 °F

Past Weeks' High & Low Weather Summary

 TemperatureHumidityPressure
High75 °F (Apr 10, 4:50 PM)100% (Apr 9, 4:50 AM)30.21 "Hg (Apr 9, 4:50 AM)
Low39 °F (Apr 17, 6:20 AM)14% (Apr 16, 2:50 PM)29.62 "Hg (Apr 19, 3:20 AM)
Average58 °F65%29.94 "Hg
* Reported Apr 9 1:20 AM — Apr 24 1:50 AM, Milan, Weather by CustomWeather, © 2014

Note: Actual official high and low records may vary slightly from our data, if they occured in-between our weather recording intervals... More about our weather records

Advertising

Historic Weather Conditions — Data for Previous 24 hours

 ConditionsComfort  
Time TempWeatherWind HumidityBarometerVisibility
1:50 AM
Apr 24
55 °FClear.No wind94%30.01 "Hg10 mi
1:20 AM55 °FClear.No wind94%30.01 "Hg10 mi
12:50 AM55 °FClear.No wind88%30.01 "Hg10 mi
12:20 AM57 °FClear.No wind88%30.01 "Hg10 mi
11:50 PM
Apr 23
57 °FClear.3 mph82%30.01 "Hg10 mi
11:20 PM59 °FClear.1 mph77%30.01 "Hg10 mi
10:50 PM61 °FClear.2 mph77%30.01 "Hg10 mi
10:20 PM61 °FClear.2 mph77%30.01 "Hg10 mi
9:50 PM61 °FClear.No wind77%30.01 "Hg10 mi
9:20 PM64 °FPassing clouds.3 mph64%30.01 "HgN/A
8:50 PM64 °FPassing clouds.5 mph64%30.01 "HgN/A
8:20 PM64 °FPassing clouds.7 mph60%29.98 "HgN/A
7:50 PM68 °FPassing clouds.7 mph56%29.98 "HgN/A
7:20 PM70 °FScattered clouds.2 mph57%29.95 "HgN/A
6:50 PM70 °FScattered clouds.8 mph57%29.98 "HgN/A
6:20 PM72 °FScattered clouds.8 mph50%29.98 "HgN/A
5:50 PM72 °FPassing clouds.8 mph50%29.98 "HgN/A
5:20 PM72 °FScattered clouds.8 mph50%29.98 "HgN/A
4:50 PM73 °FScattered clouds.6 mph44%29.98 "HgN/A
4:20 PM73 °FScattered clouds.6 mph47%29.98 "HgN/A
3:50 PM73 °FPassing clouds.5 mph44%29.98 "HgN/A
3:20 PM72 °FPassing clouds.6 mph53%29.98 "HgN/A
2:50 PM72 °FPassing clouds.5 mph50%30.01 "HgN/A
2:20 PM72 °FPassing clouds.5 mph53%30.01 "HgN/A
1:50 PM70 °FPassing clouds.5 mph57%30.01 "HgN/A
1:20 PM70 °FPassing clouds.3 mph57%30.01 "HgN/A
12:50 PM68 °FPassing clouds.3 mph60%30.04 "HgN/A
12:20 PM66 °FPassing clouds.3 mph68%30.04 "HgN/A
11:50 AM68 °FPassing clouds.3 mph64%30.04 "HgN/A
11:20 AM66 °FSunny.3 mph68%30.04 "Hg10 mi
10:50 AM64 °FPassing clouds.3 mph68%30.04 "HgN/A
10:20 AM63 °FSunny.3 mph73%30.04 "Hg10 mi
9:50 AM61 °FPassing clouds.3 mph77%30.04 "HgN/A
9:20 AM61 °FSunny.1 mph72%30.04 "Hg10 mi
8:50 AM61 °FSunny.No wind72%30.04 "Hg10 mi
8:20 AM55 °FSunny.2 mph88%30.04 "Hg10 mi
7:50 AM52 °FSunny.5 mph94%30.04 "Hg10 mi
7:20 AM52 °FPassing clouds.3 mph94%30.04 "HgN/A
6:50 AM50 °FClear.3 mph94%30.01 "Hg10 mi
6:20 AM50 °FFog.No wind100%30.01 "HgN/A
5:50 AM50 °FFog.1 mph100%30.01 "HgN/A
5:20 AM52 °FFog.2 mph94%30.01 "HgN/A
4:50 AM52 °FClear.3 mph94%30.01 "Hg10 mi
4:20 AM52 °FClear.5 mph94%30.01 "Hg10 mi
3:50 AM52 °FClear.2 mph94%30.01 "Hg10 mi
3:20 AM54 °FClear.3 mph88%30.01 "Hg10 mi
Weather by CustomWeather, © 2014

See weather overview